[[{"header":{"parameterUnit":"m.s-1","parameterCategory":1,"la1":30.2991,"la2":30.254,"lo1":-89.0895,"lo2":-89.0444,"dy":0.0017,"dx":0.0017,"nx":28,"ny":28,"refTime":"2024-04-14T03:00:00:Z","depth":0,"parameterNumber":2,"parameterNumberName":"U-component_of_WINDS"},"data":[0,0,0,0,0,0,0,0,0,0,0,0,0,0,0,0,0,0,0,0,0,0,0,0,0,0,0,0,0,0,0,0,0,0,0,0,0,0,0,0,0,0,0,0,0,0,0,0,0,0,0,0,0,0,0,0,0,0,1.415,1.415,0,1.4194,1.4194,1.4195,1.4177,1.4176,1.4175,1.4174,1.4217,1.4219,1.4221,0,0,0,0,0,0,0,0,0,0,0,0,0,1.4046,1.4048,1.4149,1.415,1.4151,1.4194,1.4194,1.4195,1.4177,1.4176,1.4175,1.4174,1.4216,1.4219,1.4221,0,0,0,0,0,0,0,0,0,0,0,0,0,1.4091,1.4049,1.4149,1.4147,1.4147,1.4194,1.4194,1.4195,1.4178,1.4176,1.4175,1.4173,1.4216,1.4219,1.4222,1.4272,0,0,1.4231,1.4233,0,0,0,0,0,0,0,0,1.4088,1.4094,1.4147,1.4147,1.4148,1.4179,1.4174,1.4221,1.4178,1.4166,1.4174,1.4172,1.4205,1.4209,1.4221,1.4274,1.4276,1.4232,1.4234,1.4235,1.4236,0,0,0,0,0,0,0,1.4085,1.4092,1.4167,1.4148,1.4148,1.4143,1.4147,1.4182,1.4194,1.4167,1.4166,1.4172,1.4205,1.4218,1.4222,1.4277,1.4232,1.4234,1.4236,1.4238,1.4371,1.4372,0,0,0,0,0,0,1.4082,1.409,1.4166,1.4168,1.4114,1.4146,1.4151,1.417,1.4193,1.4195,1.4173,1.4171,1.4213,1.4218,1.4223,1.4281,1.4235,1.4238,1.424,1.4369,1.4371,1.4373,0,0,0,0,0,0,1.408,1.4089,1.4164,1.4129,1.4138,1.4149,1.4171,1.4172,1.4184,1.4198,1.4199,1.4184,1.4212,1.4219,1.426,1.4283,1.4239,1.4242,1.4367,1.437,1.4372,1.44,0,0,0,0,0,0,1.4077,1.4089,1.4109,1.413,1.414,1.4201,1.4172,1.4174,1.419,1.4188,1.4209,1.421,1.4212,1.4255,1.4263,1.4286,1.4245,1.4365,1.4368,1.4371,1.4397,1.4403,1.4408,0,0,0,0,0,1.4074,1.4115,1.411,1.4119,1.4166,1.4202,1.4208,1.4209,1.4192,1.4212,1.422,1.421,1.428,1.4259,1.4268,1.4293,1.4363,1.4367,1.4371,1.4394,1.4402,1.4408,0,0,0,0,0,0,1.4096,1.4118,1.4112,1.4162,1.418,1.4199,1.4224,1.4217,1.424,1.4237,1.4237,1.4241,1.4283,1.4292,1.427,1.4341,1.4319,1.4324,1.4334,1.4341,1.4346,1.4342,1.4247,0,0,0,0,0,1.4107,1.4136,1.4153,1.4195,1.4204,1.4213,1.4229,1.4228,1.4247,1.4254,1.4265,1.4283,1.4309,1.4326,1.435,1.4399,1.4401,1.442,1.4425,1.443,1.4434,1.4458,1.4465,1.4385,1.4385,1.4385,0,0,1.413,1.4145,1.4163,1.42,1.4214,1.4242,1.4219,1.4251,1.4271,1.4259,1.4297,1.4306,1.4326,1.437,1.439,1.4379,1.4457,1.4435,1.4438,1.444,1.4462,1.447,1.4477,1.4387,1.4387,1.4386,0,0,1.4184,1.42,1.4235,1.425,1.4272,1.4277,1.4285,1.4305,1.431,1.435,1.434,1.4364,1.4409,1.4422,1.4435,1.4494,1.4484,1.4502,1.4531,1.4554,1.456,1.4566,1.4584,1.4591,1.4507,1.4507,1.4507,0,1.4209,1.4252,1.4254,1.4286,1.4301,1.4292,1.4326,1.434,1.4369,1.4379,1.4367,1.4421,1.4434,1.448,1.4494,1.4506,1.4514,1.4499,1.4559,1.4565,1.457,1.4587,1.4595,1.4508,1.4508,1.4508,1.4508,0,1.428,1.431,1.4336,1.4364,1.4382,1.4416,1.4421,1.4439,1.4437,1.4442,1.4481,1.4496,1.4522,1.4534,1.4532,1.4579,1.4571,1.4559,1.4536,1.4579,1.4596,1.4603,1.4511,1.451,1.451,1.4509,0,0,1.435,1.4378,1.4387,1.4398,1.4421,1.4444,1.4476,1.4502,1.4516,1.4536,1.4561,1.4599,1.4588,1.4602,1.4602,1.4622,1.4664,1.4608,1.4608,1.4615,1.4714,1.4721,1.4729,1.4659,1.4661,1.4662,1.4712,0,1.4404,1.4461,1.4463,1.4514,1.454,1.4531,1.4558,1.4575,1.4581,1.4603,1.461,1.4635,1.462,1.4628,1.4648,1.4655,1.4684,1.4652,1.468,1.4681,1.4674,1.4738,1.4746,1.4793,1.4719,1.472,1.472,0,1.4476,1.4497,1.4551,1.4568,1.4579,1.4604,1.4627,1.4649,1.4667,1.467,1.4685,1.4681,1.4712,1.4689,1.473,1.4708,1.472,1.4725,1.4727,1.4728,1.4702,1.4739,1.4808,1.4814,1.4731,1.473,1.4729,0,1.4518,1.4561,1.4598,1.4608,1.463,1.4647,1.4657,1.4673,1.4688,1.4708,1.4717,1.4741,1.4753,1.477,1.4772,1.4755,1.4812,1.479,1.4813,1.4813,1.4824,1.4823,1.4894,1.4836,1.4836,1.4835,1.4835,0,1.4577,1.461,1.4617,1.4639,1.4674,1.4676,1.4711,1.4719,1.4733,1.4756,1.475,1.4771,1.4773,1.4795,1.4796,1.4828,1.4835,1.4836,1.4836,1.4835,1.4835,1.4842,1.4838,1.4837,1.4837,1.4837,1.4836,0,1.4629,1.4636,1.4675,1.4692,1.4697,1.4722,1.4737,1.4757,1.4763,1.4791,1.4798,1.4806,1.4831,1.4835,1.4864,1.4865,1.4903,1.49,1.4897,1.4896,1.4918,1.4915,1.4994,1.5004,1.4941,1.4942,1.4942,0,1.4666,1.469,1.471,1.4725,1.4736,1.476,1.4775,1.4777,1.4793,1.4814,1.4832,1.4856,1.4875,1.4915,1.4923,1.4944,1.4941,1.4967,1.4944,1.4942,1.4938,1.4936,1.4937,1.4971,1.4971,1.4972,1.4972,0,1.4729,1.473,1.4753,1.4776,1.4794,1.4812,1.4829,1.4842,1.4846,1.4863,1.4889,1.4904,1.4933,1.4956,1.4978,1.4986,1.4979,1.498,1.4986,1.4985,1.4981,1.4981,1.4907,1.4978,1.4977,1.4977,1.4976,1.4976,1.4772,1.4793,1.481,1.4834,1.4847,1.4863,1.4883,1.489,1.4912,1.4936,1.4936,1.4963,1.4978,1.5006,1.5016,1.5036,1.5028,1.5037,1.5039,1.5041,1.5042,1.4979,1.5041,1.5041,1.504,1.504,1.504,0,1.4833,1.4843,1.4866,1.4889,1.4908,1.4901,1.492,1.4935,1.4959,1.4975,1.4994,1.5021,1.5044,1.5053,1.5075,1.5089,1.5086,1.5094,1.5092,1.5094,1.505,1.5041,1.5096,1.5096,1.5096,1.5096,1.5096,1.5096,1.4866,1.49,1.4903,1.4943,1.4952,1.4979,1.499,1.5004,1.5015,1.5047,1.5066,1.5072,1.5084,1.5106,1.5126,1.5128,1.5135,1.5144,1.5145,1.5103,1.5097,1.5092,1.5083,1.5146,1.5146,1.5186,1.5187,1.5187]},{"header":{"parameterUnit":"m.s-1","parameterCategory":1,"la1":30.2991,"la2":30.254,"lo1":-89.0895,"lo2":-89.0444,"dy":0.0017,"dx":0.0017,"nx":28,"ny":28,"refTime":"2024-04-14T03:00:00:Z","depth":0,"parameterNumber":3,"parameterNumberName":"V-component_of_WINDS"},"data":[0,0,0,0,0,0,0,0,0,0,0,0,0,0,0,0,0,0,0,0,0,0,0,0,0,0,0,0,0,0,0,0,0,0,0,0,0,0,0,0,0,0,0,0,0,0,0,0,0,0,0,0,0,0,0,0,0,0,1.6056,1.6057,0,1.6156,1.6158,1.6159,1.6172,1.6171,1.6171,1.617,1.627,1.6274,1.6277,0,0,0,0,0,0,0,0,0,0,0,0,0,1.5874,1.5877,1.6056,1.6057,1.6059,1.6156,1.6158,1.6159,1.6173,1.6171,1.617,1.6169,1.6269,1.6273,1.6277,0,0,0,0,0,0,0,0,0,0,0,0,0,1.5961,1.5878,1.6056,1.6077,1.608,1.6156,1.6158,1.6159,1.6173,1.6171,1.617,1.6169,1.6268,1.6273,1.6278,1.6339,0,0,1.6294,1.6296,0,0,0,0,0,0,0,0,1.5956,1.5968,1.6073,1.6076,1.6079,1.6151,1.613,1.6219,1.6173,1.6138,1.617,1.6168,1.6231,1.6239,1.6261,1.6343,1.6348,1.6295,1.6298,1.63,1.6302,0,0,0,0,0,0,0,1.595,1.5964,1.6096,1.6074,1.6078,1.6081,1.6092,1.6147,1.6191,1.6141,1.6142,1.6154,1.6233,1.6256,1.6264,1.6349,1.6294,1.6299,1.6302,1.6305,1.6484,1.6485,0,0,0,0,0,0,1.5941,1.5959,1.6093,1.6099,1.6013,1.6085,1.6097,1.6129,1.619,1.6199,1.6155,1.6154,1.6248,1.6258,1.6267,1.6341,1.63,1.6305,1.6308,1.6482,1.6484,1.6486,0,0,0,0,0,0,1.5937,1.5952,1.6089,1.6029,1.6047,1.609,1.6125,1.6132,1.6155,1.6201,1.6209,1.6171,1.6247,1.626,1.6321,1.6345,1.6307,1.6312,1.6481,1.6483,1.6485,1.6491,0,0,0,0,0,0,1.5931,1.5951,1.5975,1.603,1.605,1.6141,1.6127,1.6135,1.6165,1.6164,1.6218,1.6226,1.6247,1.6313,1.6326,1.6352,1.6316,1.6479,1.6482,1.6484,1.6489,1.6493,1.6497,0,0,0,0,0,1.5925,1.5973,1.5977,1.5993,1.6081,1.6143,1.6154,1.6178,1.6167,1.6191,1.622,1.6224,1.634,1.6319,1.6334,1.6362,1.6477,1.6481,1.6484,1.6487,1.6492,1.6497,0,0,0,0,0,0,1.5921,1.5981,1.5985,1.6053,1.6092,1.6145,1.6176,1.6183,1.6227,1.6225,1.6252,1.6264,1.6323,1.6348,1.6323,1.6423,1.6407,1.6414,1.6404,1.641,1.6414,1.6406,1.6321,0,0,0,0,0,1.5927,1.5973,1.6023,1.6077,1.6097,1.6133,1.6161,1.6176,1.6218,1.6235,1.6268,1.6308,1.6354,1.6383,1.6427,1.6492,1.6503,1.6518,1.6522,1.6526,1.6531,1.6566,1.6573,1.6498,1.6498,1.6498,0,0,1.5942,1.598,1.6008,1.6077,1.611,1.6155,1.6147,1.6196,1.623,1.6242,1.6301,1.6327,1.6373,1.6436,1.6465,1.6459,1.6554,1.653,1.6532,1.6536,1.657,1.6577,1.6583,1.65,1.65,1.6499,0,0,1.5992,1.6026,1.6075,1.6107,1.6157,1.618,1.6192,1.6243,1.6261,1.6321,1.633,1.637,1.6448,1.648,1.6507,1.6567,1.6571,1.658,1.6602,1.6635,1.6641,1.6646,1.6667,1.6674,1.6585,1.6586,1.6586,0,1.6004,1.6074,1.6099,1.6147,1.6177,1.6189,1.6238,1.6268,1.6329,1.6349,1.6341,1.6438,1.647,1.654,1.6554,1.6575,1.6588,1.6575,1.6638,1.6644,1.6649,1.6669,1.6677,1.6586,1.6586,1.6586,1.6586,0,1.6086,1.6134,1.6167,1.6225,1.6259,1.6307,1.6338,1.6368,1.6379,1.6403,1.6463,1.6502,1.6554,1.6571,1.6583,1.6642,1.6636,1.6633,1.6618,1.6657,1.6676,1.6683,1.6587,1.6587,1.6587,1.6587,0,0,1.6137,1.6208,1.6219,1.6245,1.63,1.6337,1.6385,1.6436,1.6461,1.6502,1.6542,1.6607,1.6604,1.6634,1.6649,1.6678,1.6721,1.6671,1.6672,1.6678,1.6787,1.6789,1.6798,1.6725,1.6726,1.6728,1.6783,0,1.6193,1.628,1.6302,1.6375,1.6419,1.6431,1.6472,1.6509,1.6532,1.6572,1.6597,1.6642,1.6635,1.6653,1.6683,1.671,1.6744,1.6706,1.6761,1.6763,1.6749,1.6808,1.6811,1.6861,1.6791,1.6792,1.6793,0,1.627,1.6313,1.639,1.6438,1.6457,1.6494,1.6542,1.658,1.6621,1.6636,1.6668,1.668,1.6729,1.6711,1.6778,1.6752,1.6775,1.6792,1.6795,1.6801,1.678,1.6815,1.6878,1.6886,1.6805,1.6804,1.6803,0,1.6299,1.6376,1.6432,1.6454,1.6511,1.6536,1.6561,1.6601,1.663,1.6671,1.6689,1.6735,1.676,1.6795,1.6819,1.6804,1.6883,1.6867,1.6895,1.6895,1.6912,1.691,1.6979,1.6927,1.6927,1.6927,1.6927,0,1.6359,1.6406,1.6445,1.648,1.6532,1.6556,1.6607,1.6632,1.6667,1.6705,1.6718,1.6754,1.6783,1.6822,1.684,1.6892,1.6903,1.6915,1.6919,1.6914,1.6912,1.693,1.6927,1.6929,1.6928,1.6928,1.6928,0,1.6401,1.6429,1.649,1.6539,1.6552,1.6588,1.6629,1.6662,1.6684,1.6733,1.6745,1.6781,1.6827,1.6854,1.6912,1.6925,1.6982,1.6985,1.6968,1.697,1.6996,1.6993,1.7078,1.709,1.703,1.7031,1.7031,0,1.6437,1.6473,1.6525,1.6552,1.6577,1.662,1.6649,1.6674,1.6703,1.6753,1.6779,1.6826,1.6866,1.6939,1.6969,1.7013,1.7017,1.7044,1.7024,1.7017,1.7017,1.7014,1.7017,1.7047,1.7048,1.7048,1.7049,0,1.6499,1.651,1.6552,1.6598,1.6632,1.667,1.6707,1.6728,1.6759,1.6791,1.6839,1.6869,1.6928,1.6975,1.7021,1.7045,1.7052,1.7054,1.7063,1.7058,1.7047,1.7052,1.6977,1.7053,1.7052,1.7052,1.7052,1.7052,1.6538,1.657,1.6611,1.6657,1.6687,1.6721,1.6754,1.6781,1.6821,1.6872,1.6884,1.6934,1.6972,1.7035,1.706,1.7099,1.7094,1.7107,1.711,1.7113,1.7113,1.704,1.7107,1.7107,1.7107,1.7107,1.7107,0,1.66,1.6626,1.6668,1.6719,1.6755,1.6758,1.6799,1.6828,1.6872,1.6908,1.6945,1.6999,1.7044,1.7077,1.7122,1.7146,1.715,1.7157,1.7155,1.7161,1.7115,1.7103,1.7153,1.7153,1.7153,1.7153,1.7153,1.7153,1.6636,1.669,1.6706,1.6775,1.6801,1.685,1.6873,1.6904,1.6932,1.6992,1.7029,1.7051,1.7085,1.7132,1.7172,1.7181,1.7197,1.7203,1.7212,1.7169,1.7164,1.7159,1.7148,1.7206,1.7206,1.7254,1.7254,1.7255]}]]